NY5V Weather Reports


Display with metric or nautical units.
time (UTC)temp
F
wind
direction
speed
MPH
gust
MPH
rain 1hr
in
rain 24hr
in
rain mn
in
humidity
%
barometer
mb
20260504050340 63 45 0.0 1.0 0.00 0.00 0.00 67 1016.9
20260504045338 63 40 0.0 0.0 0.00 0.00 0.00 73 1017.0
20260504044332 64 46 0.0 0.0 0.00 0.00 0.00 70 1016.9
20260504043332 64 44 0.0 0.0 0.00 0.00 0.00 66 1017.1
20260504042331 64 39 0.0 0.0 0.00 0.00 0.00 69 1017.2
20260504041330 65 35 0.0 1.0 0.00 0.00 0.00 68 1017.1
20260504040330 66 43 0.0 0.0 0.00 0.00 0.00 65 1017.2
20260504035330 66 38 1.0 1.0 0.00 0.00 0.00 66 1017.0
20260504034324 66 45 0.0 0.0 0.00 0.00 0.00 63 1017.2
20260504033319 67 44 0.0 0.0 0.00 0.00 0.00 64 1017.1
20260504032318 67 44 2.0 2.0 0.00 0.00 0.00 62 1017.1
20260504031318 67 46 0.0 0.0 0.00 0.00 0.00 65 1017.0
20260504030318 68 44 0.0 0.0 0.00 0.00 0.00 63 1017.2
20260504025317 68 47 0.0 0.0 0.00 0.00 0.00 64 1017.0
20260504024315 68 45 0.0 1.0 0.00 0.00 0.00 61 1017.2
20260504023315 68 45 0.0 0.0 0.00 0.00 0.00 64 1017.1
20260504022313 68 45 0.0 0.0 0.00 0.00 0.00 63 1017.2
20260504021314 68 46 0.0 0.0 0.00 0.00 0.00 62 1017.1
20260504020313 69 43 0.0 0.0 0.00 0.00 0.00 61 1017.1
20260504015311 70 42 0.0 0.0 0.00 0.00 0.00 58 1016.9
20260504014309 68 45 0.0 0.0 0.00 0.00 0.00 62 1016.8
20260504013305 69 45 0.0 0.0 0.00 0.00 0.00 58 1016.9
20260504012259 70 39 0.0 0.0 0.00 0.00 0.00 58 1016.8
20260504011258 72 44 0.0 0.0 0.00 0.00 0.00 53 1016.7
20260504010255 73 44 0.0 0.0 0.00 0.00 0.00 49 1016.6
20260504005255 74 41 1.0 1.0 0.00 0.00 0.00 48 1016.6
20260504004250 75 41 0.0 1.0 0.00 0.00 0.00 47 1016.7
20260504003249 75 45 0.0 0.0 0.00 0.00 0.00 46 1016.8
20260504002248 75 32 1.0 1.0 0.00 0.00 0.00 45 1016.8
20260504001248 76 48 1.0 1.0 0.00 0.00 0.00 44 1016.6
20260504000248 76 41 0.0 0.0 0.00 0.00 0.00 44 1016.8
20260503235243 77 18 2.0 2.0 0.00 0.00 0.00 46 1016.9
20260503234239 77 25 2.0 3.0 0.00 0.00 0.00 42 1017.1
20260503233237 78 45 1.0 1.0 0.00 0.00 0.00 41 1017.0
20260503232237 78 41 2.0 2.0 0.00 0.00 0.00 42 1016.8
20260503231232 78 353 2.0 3.0 0.00 0.00 0.00 42 1017.0
20260503230232 78 45 0.0 1.0 0.00 0.00 0.00 42 1017.2
20260503225229 78 42 3.0 3.0 0.00 0.00 0.00 42 1017.1
20260503224224 78 50 0.0 0.0 0.00 0.00 0.00 40 1017.1
20260503223225 78 46 1.0 1.0 0.00 0.00 0.00 40 1017.1
20260503222225 79 41 1.0 1.0 0.00 0.00 0.00 42 1016.9
20260503221220 79 43 1.0 1.0 0.00 0.00 0.00 40 1017.0
20260503220219 79 46 1.0 1.0 0.00 0.00 0.00 40 1017.3
20260503215218 78 37 1.0 2.0 0.00 0.00 0.00 42 1017.2
20260503214218 79 55 0.0 1.0 0.00 0.00 0.00 40 1017.8
20260503213214 79 40 0.0 1.0 0.00 0.00 0.00 40 1018.0
20260503212208 79 28 0.0 1.0 0.00 0.00 0.00 40 1018.1
20260503211207 79 5 3.0 3.0 0.00 0.00 0.00 44 1018.2
20260503210206 80 38 1.0 1.0 0.00 0.00 0.00 40 1018.3
20260503205204 79 19 3.0 3.0 0.00 0.00 0.00 41 1018.5
20260503204204 79 34 2.0 3.0 0.00 0.00 0.00 40 1018.7
20260503203159 78 48 0.0 1.0 0.00 0.00 0.00 41 1018.6
20260503202159 79 48 1.0 2.0 0.00 0.00 0.00 40 1019.1
20260503201155 79 8 4.0 6.0 0.00 0.00 0.00 41 1019.2
20260503200153 79 300 3.0 7.0 0.00 0.00 0.00 41 1019.5
20260503195153 78 344 2.0 3.0 0.00 0.00 0.00 41 1019.5
20260503194151 78 27 4.0 4.0 0.00 0.00 0.00 40 1019.9
20260503193149 78 23 2.0 4.0 0.00 0.00 0.00 43 1019.9
20260503192146 78 0 4.0 6.0 0.00 0.00 0.00 41 1020.1
20260503191146 79 47 4.0 6.0 0.00 0.00 0.00 42 1020.3
20260503190146 78 43 0.0 0.0 0.00 0.00 0.00 43 1020.4
20260503185144 78 37 1.0 1.0 0.00 0.00 0.00 43 1020.3
20260503184141 78 357 4.0 6.0 0.00 0.00 0.00 43 1020.7
20260503183142 78 32 1.0 1.0 0.00 0.00 0.00 44 1020.9
20260503182139 77 44 1.0 2.0 0.00 0.00 0.00 43 1021.0
20260503181137 78 44 0.0 0.0 0.00 0.00 0.00 44 1021.3
20260503180138 78 39 2.0 2.0 0.00 0.00 0.00 43 1021.6
20260503175137 76 47 1.0 1.0 0.00 0.00 0.00 46 1021.4
20260503174137 77 5 4.0 6.0 0.00 0.00 0.00 45 1021.9
20260503173135 77 12 4.0 4.0 0.00 0.00 0.00 45 1021.8
20260503172135 77 40 1.0 1.0 0.00 0.00 0.00 46 1021.9
20260503171135 76 17 5.0 7.0 0.00 0.00 0.00 46 1022.1
20260503170134 76 45 2.0 3.0 0.00 0.00 0.00 45 1022.2
20260503160124 74 27 1.0 1.0 0.00 0.00 0.00 47 1022.4
20260503150108 70 37 1.0 2.0 0.00 0.00 0.00 53 1022.5
20260503131059 59 37 1.0 1.0 0.00 0.00 0.00 76 1021.8
20260503081007 56 46 0.0 0.0 0.00 0.00 0.00 80 1020.6